Location: Arpaise
(41.0333°N, 14.7333°E)
Time: 01:14:47
(UTC+00:00)

Cosmos 44 - Pass Details

Date: 05 July 2020
Orbit: 586 x 775 km, 65.1° (Epoch: 11 August)

Event Time Altitude Azimuth Distance (km) Brightness Sun altitude
Exits shadow 22:05:17 39° 64° (ENE) 890 3.9 -24.8°
Drops below altitude 10° 22:08:18 10° 40° (NE) 1,949 6.0 -24.9°
Sets 22:10:37 0° 37° (NE) 2,877 7.0 -25.0°
